Regional Weather Roundup
Issued by NWS

Home | Current Version | Previous Version | Text Only | Print | Product List | Glossary Off
Versions: 1 2 3 4 5 6 7 8 9 10 11 12 13 14 15 16 17 18 19 20 21 22 23 24 25 26 27 28 29 30 31 32 33 34 35 36 37 38 39 40 41 42 43 44 45 46 47 48 49 50

000
ASUS43 KBIS 130210
RWRND

NORTH DAKOTA REGIONAL WEATHER ROUNDUP
NATIONAL WEATHER SERVICE BISMARCK ND
900 PM CDT SAT JUL 12 2014

NOTE: "FAIR" INDICATES FEW OR NO CLOUDS BELOW 12,000 FEET WITH NO
SIGNIFICANT WEATHER AND/OR OBSTRUCTIONS TO VISIBILITY.


NDZ001>003-009>011-017-130300-
NORTHWEST NORTH DAKOTA

CITY           SKY/WX    TMP DP  RH WIND       PRES   REMARKS
WILLISTON      CLEAR     77  51  40 N10       30.08R
MINOT          PTCLDY    71  54  54 NW10      30.01R
$$

NDZ018>021-031>035-040>046-130300-
SOUTHWEST NORTH DAKOTA

CITY           SKY/WX    TMP DP  RH WIND       PRES   REMARKS
BISMARCK       CLEAR     77  54  44 NW10      30.03S
DICKINSON      CLEAR     72  52  49 N8        30.09R
GARRISON         N/A     71  58  63 NW8       30.02R
HETTINGER ARPT CLEAR     73  60  63 NW6       30.11S
$$

NDZ004>008-012>016-024-026-027-054-130300-
NORTHEAST NORTH DAKOTA

CITY           SKY/WX    TMP DP  RH WIND       PRES   REMARKS
GRAND FORKS    LGT RAIN  61  58  90 NW5       29.93F
DEVILS LAKE    MOCLDY    63  54  72 N5        29.96S
$$

NDZ022-023-025-028>030-036>039-047>053-130300-
SOUTHEAST NORTH DAKOTA

CITY           SKY/WX    TMP DP  RH WIND       PRES   REMARKS
FARGO          PTCLDY    74  57  55 N21G26    29.91R
JAMESTOWN      CLEAR     72  52  49 W9        29.96S
$$




USA.gov is the U.S. government's official web portal to all federal, state and local government web resources and services.